Zurück zum Katalog

OPS 4682 DEB

AktivPO
NORAD 38416·DEBRIS·🇺🇸 United States

Gestartet Apr 3, 1965 von Vandenberg Space Force Base

Loading…

Nächste Überflüge (nächste 24 Stunden)

TLE

AktuellSource: Space-Track

Epoche: Sep 14, 2026, 13:17 UTC

1 38416U 65027DV  26257.55372522  .00000313  00000-0  10773-2 0  9992
2 38416  90.2531  11.6658 0031154 261.8692  97.8893 12.95877436646292

Verfolge OPS 4682 DEB in Echtzeit mit AllMySat

Download on the App Store